Messwerte Walfischbucht

Temperatur

Temperatur
°C
1638187200 14.00 14.00 25
1638190800 15.00 15.00 25
1638194400 16.00 16.00
1638198000 17.00 17.00 25
1638201600 18.00 18.00 22
1638205200 19.00 19.00 20
1638208800 20.00 20.00
1638212400 21.00 21.00 15
1638216000 22.00 22.00 14
1638219600 23.00 23.00 14
1638223200 0.00 0.00 14
1638226800 1.00 1.00 14
1638230400 2.00 2.00 13
1638234000 3.00 3.00 13
1638237600 4.00 4.00 13
1638241200 5.00 5.00 13
1638244800 6.00 6.00 13
1638248400 7.00 7.00 13
1638252000 8.00 8.00 13
1638255600 9.00 9.00 14
1638259200 10.00 10.00 17
1638262800 11.00 11.00 21
1638266400 12.00 12.00 23
1638270000 13.00 13.00 23

Aktuellste Messwerte

Temperatur
23 °C
Feuchtigkeit
55 %
Wind
20 km/hWindrichtung: West
Luftdruck
1014 hPa
Messzeit: 30. November 2021, 13.00Datenquelle: METAR

Weitere Messstationen in der Nähe

Messstation Temperatur Entfernung
Windhuk 31 °C 252 km
Windhuk 32 °C 257 km
Windhoek 30 °C 294 km

Wind

Windrichtung Böen Mittelwind
° km/h km/h
1638187200 14.00 13.00 - 14.00 250° 25
1638190800 15.00 14.00 - 15.00 250° 30
1638194400 16.00 15.00 - 16.00
1638198000 17.00 16.00 - 17.00 250° 30
1638201600 18.00 17.00 - 18.00 250° 30
1638205200 19.00 18.00 - 19.00 240° 30
1638208800 20.00 19.00 - 20.00
1638212400 21.00 20.00 - 21.00 260° 15
1638216000 22.00 21.00 - 22.00 290° 10
1638219600 23.00 22.00 - 23.00 10° 10
1638223200 0.00 23.00 - 0.00 10° 10
1638226800 1.00 0.00 - 1.00 50° 5
1638230400 2.00 1.00 - 2.00 70° 10
1638234000 3.00 2.00 - 3.00 30° 5
1638237600 4.00 3.00 - 4.00 90° 5
1638241200 5.00 4.00 - 5.00 190° 5
1638244800 6.00 5.00 - 6.00 130° 10
1638248400 7.00 6.00 - 7.00 100° 15
1638252000 8.00 7.00 - 8.00 90° 10
1638255600 9.00 8.00 - 9.00 80° 5
1638259200 10.00 9.00 - 10.00 90° 10
1638262800 11.00 10.00 - 11.00 60° 5
1638266400 12.00 11.00 - 12.00 280° 15
1638270000 13.00 12.00 - 13.00 290° 20

Ihre Wetterstation

Fehlt Ihre Wetterstation auf unserem Portal?

Schreiben Sie an network@meteonews.ch

Klima

Wann ist es am wärmsten? Wann regnet es am wenigsten? Unsere Klimadaten geben Auskunft.